| time (UTC) | temp F | wind direction | speed knots | gust knots | rain 1hr in | rain 24hr in | rain mn in | humidity % | barometer mb |
| 20260507090605 | 54 | 247 | 0.0 | 1.7 | 0.00 | 0.00 | 0.00 | 90 | 1009.5 |
| 20260507090105 | 55 | 292 | 0.0 | 0.0 | 0.00 | 0.00 | 0.00 | 90 | 1009.5 |
| 20260507085604 | 55 | 292 | 0.0 | 1.7 | 0.00 | 0.00 | 0.00 | 90 | 1009.5 |
| 20260507085105 | 55 | 247 | 0.0 | 1.7 | 0.00 | 0.00 | 0.00 | 90 | 1009.5 |
| 20260507084604 | 55 | 157 | 0.0 | 1.7 | 0.00 | 0.00 | 0.00 | 90 | 1009.2 |
| 20260507084103 | 55 | 161 | 0.9 | 4.3 | 0.00 | 0.00 | 0.00 | 90 | 1009.5 |
| 20260507083605 | 55 | 162 | 0.9 | 2.6 | 0.00 | 0.00 | 0.00 | 90 | 1009.5 |
| 20260507083104 | 55 | 128 | 0.0 | 1.7 | 0.00 | 0.00 | 0.00 | 90 | 1009.5 |
| 20260507082104 | 55 | 157 | 0.9 | 4.3 | 0.00 | 0.00 | 0.00 | 91 | 1009.5 |
| 20260507081604 | 55 | 135 | 0.9 | 5.2 | 0.00 | 0.00 | 0.00 | 91 | 1009.5 |
| 20260507081104 | 55 | 148 | 0.9 | 5.2 | 0.00 | 0.00 | 0.00 | 91 | 1009.5 |
| 20260507080604 | 55 | 160 | 1.7 | 5.2 | 0.00 | 0.00 | 0.00 | 91 | 1009.5 |
| 20260507080104 | 55 | 138 | 0.9 | 4.3 | 0.00 | 0.00 | 0.00 | 91 | 1009.5 |
| 20260507075604 | 55 | 157 | 0.9 | 2.6 | 0.00 | 0.00 | 0.00 | 92 | 1009.5 |
| 20260507075104 | 55 | 135 | 0.0 | 1.7 | 0.00 | 0.00 | 0.00 | 92 | 1009.5 |
| 20260507074603 | 55 | 135 | 0.0 | 4.3 | 0.00 | 0.00 | 0.00 | 92 | 1009.5 |
| 20260507074104 | 55 | 170 | 0.9 | 2.6 | 0.00 | 0.00 | 0.00 | 92 | 1009.5 |
| 20260507073604 | 55 | 157 | 0.0 | 0.9 | 0.00 | 0.00 | 0.00 | 92 | 1009.4 |
| 20260507073104 | 55 | 135 | 0.0 | 0.0 | 0.00 | 0.00 | 0.00 | 92 | 1009.5 |
| 20260507072605 | 55 | 135 | 0.0 | 0.0 | 0.00 | 0.00 | 0.00 | 92 | 1009.5 |
| 20260507071604 | 55 | 90 | 0.0 | 0.0 | 0.00 | 0.00 | 0.00 | 91 | 1009.5 |
| 20260507070603 | 55 | 112 | 0.0 | 0.0 | 0.00 | 0.00 | 0.00 | 91 | 1009.5 |
| 20260507065604 | 55 | 112 | 0.0 | 0.0 | 0.00 | 0.00 | 0.00 | 91 | 1009.4 |
| 20260507065105 | 55 | 225 | 0.0 | 0.0 | 0.00 | 0.00 | 0.00 | 90 | 1009.4 |
| 20260507064603 | 55 | 202 | 0.0 | 0.0 | 0.00 | 0.00 | 0.00 | 90 | 1009.5 |
| 20260507064104 | 55 | 202 | 0.0 | 0.0 | 0.00 | 0.00 | 0.00 | 90 | 1009.5 |
| 20260507063604 | 56 | 202 | 0.0 | 0.0 | 0.00 | 0.00 | 0.00 | 90 | 1009.5 |
| 20260507063104 | 56 | 135 | 0.0 | 0.0 | 0.00 | 0.00 | 0.00 | 90 | 1009.5 |
| 20260507062603 | 56 | 225 | 0.0 | 0.0 | 0.00 | 0.00 | 0.00 | 90 | 1009.5 |
| 20260507062104 | 56 | 225 | 0.0 | 0.9 | 0.00 | 0.00 | 0.00 | 90 | 1009.5 |
| 20260507061106 | 55 | 157 | 0.0 | 0.0 | 0.00 | 0.00 | 0.00 | 89 | 1009.5 |
| 20260507060606 | 56 | 180 | 0.0 | 0.0 | 0.00 | 0.00 | 0.00 | 89 | 1009.5 |
| 20260507055107 | 56 | 180 | 0.0 | 0.0 | 0.00 | 0.00 | 0.00 | 88 | 1009.5 |
| 20260507054606 | 56 | 180 | 0.0 | 0.0 | 0.00 | 0.00 | 0.00 | 88 | 1009.5 |
| 20260507053605 | 56 | 225 | 0.0 | 0.0 | 0.00 | 0.00 | 0.00 | 87 | 1009.5 |
| 20260507053105 | 56 | 225 | 0.0 | 0.0 | 0.00 | 0.00 | 0.00 | 87 | 1009.5 |
| 20260507052605 | 56 | 225 | 0.0 | 0.0 | 0.00 | 0.00 | 0.00 | 87 | 1009.5 |
| 20260507052105 | 57 | 225 | 0.0 | 0.0 | 0.00 | 0.00 | 0.00 | 87 | 1009.5 |
| 20260507051606 | 57 | 225 | 0.0 | 1.7 | 0.00 | 0.00 | 0.00 | 87 | 1009.5 |
| 20260507051105 | 57 | 291 | 0.9 | 2.6 | 0.00 | 0.00 | 0.00 | 86 | 1009.5 |
| 20260507045606 | 58 | 225 | 0.9 | 1.7 | 0.00 | 0.00 | 0.00 | 86 | 1009.5 |
| 20260507045106 | 58 | 284 | 0.9 | 5.2 | 0.00 | 0.00 | 0.00 | 86 | 1009.5 |
| 20260507044105 | 58 | 249 | 1.7 | 2.6 | 0.00 | 0.00 | 0.00 | 85 | 1009.5 |
| 20260507043606 | 58 | 256 | 1.7 | 6.1 | 0.00 | 0.00 | 0.00 | 85 | 1009.2 |
| 20260507043106 | 58 | 292 | 1.7 | 5.2 | 0.00 | 0.00 | 0.00 | 85 | 1009.4 |
| 20260507042606 | 58 | 266 | 1.7 | 4.3 | 0.00 | 0.00 | 0.00 | 84 | 1009.4 |
| 20260507042106 | 58 | 291 | 2.6 | 4.3 | 0.00 | 0.00 | 0.00 | 84 | 1009.1 |
| 20260507041605 | 59 | 257 | 0.9 | 7.0 | 0.00 | 0.00 | 0.00 | 84 | 1009.1 |
| 20260507041105 | 59 | 231 | 1.7 | 7.0 | 0.00 | 0.00 | 0.00 | 83 | 1009.1 |
| 20260507040605 | 59 | 243 | 2.6 | 6.1 | 0.00 | 0.00 | 0.00 | 83 | 1009.1 |
| 20260507040105 | 59 | 256 | 1.7 | 5.2 | 0.00 | 0.00 | 0.00 | 83 | 1009.1 |
| 20260507035605 | 59 | 253 | 2.6 | 6.1 | 0.00 | 0.00 | 0.00 | 82 | 1009.1 |
| 20260507035106 | 59 | 255 | 1.7 | 4.3 | 0.00 | 0.00 | 0.00 | 82 | 1009.4 |
| 20260507034105 | 60 | 221 | 1.7 | 7.0 | 0.00 | 0.00 | 0.00 | 82 | 1009.1 |
| 20260507033606 | 60 | 251 | 3.5 | 7.8 | 0.00 | 0.00 | 0.00 | 82 | 1009.1 |
| 20260507033106 | 60 | 238 | 1.7 | 6.1 | 0.00 | 0.00 | 0.00 | 82 | 1008.8 |
| 20260507032606 | 60 | 273 | 3.5 | 8.7 | 0.00 | 0.00 | 0.00 | 81 | 1008.8 |
| 20260507031605 | 61 | 269 | 2.6 | 5.2 | 0.00 | 0.00 | 0.00 | 80 | 1008.8 |
| 20260507031105 | 61 | 249 | 4.3 | 8.7 | 0.00 | 0.00 | 0.00 | 80 | 1008.8 |
| 20260507030606 | 62 | 294 | 0.9 | 4.3 | 0.00 | 0.00 | 0.00 | 79 | 1008.8 |
| 20260507030105 | 62 | 258 | 2.6 | 4.3 | 0.00 | 0.00 | 0.00 | 78 | 1009.1 |
| 20260507025607 | 62 | 255 | 2.6 | 7.8 | 0.00 | 0.00 | 0.00 | 78 | 1008.8 |
| 20260507025105 | 63 | 282 | 3.5 | 10.4 | 0.00 | 0.00 | 0.00 | 77 | 1008.8 |
| 20260507024606 | 63 | 247 | 2.6 | 10.4 | 0.00 | 0.00 | 0.00 | 76 | 1008.8 |
| 20260507024105 | 64 | 248 | 2.6 | 7.0 | 0.00 | 0.00 | 0.00 | 75 | 1008.5 |
| 20260507023605 | 64 | 286 | 2.6 | 7.0 | 0.00 | 0.00 | 0.00 | 74 | 1008.5 |
| 20260507023105 | 65 | 276 | 2.6 | 6.1 | 0.00 | 0.00 | 0.00 | 74 | 1008.5 |
| 20260507022605 | 65 | 252 | 4.3 | 8.7 | 0.00 | 0.00 | 0.00 | 73 | 1008.2 |
| 20260507022106 | 65 | 263 | 2.6 | 10.4 | 0.00 | 0.00 | 0.00 | 72 | 1008.1 |
| 20260507020607 | 67 | 254 | 4.3 | 11.3 | 0.00 | 0.00 | 0.00 | 70 | 1008.1 |
| 20260507020106 | 67 | 277 | 4.3 | 10.4 | 0.00 | 0.00 | 0.00 | 69 | 1008.1 |
| 20260507015605 | 68 | 255 | 2.6 | 7.8 | 0.00 | 0.00 | 0.00 | 69 | 1008.1 |
| 20260507015106 | 68 | 256 | 4.3 | 7.8 | 0.00 | 0.00 | 0.00 | 68 | 1007.8 |
| 20260507014606 | 69 | 259 | 4.3 | 7.0 | 0.00 | 0.00 | 0.00 | 67 | 1007.8 |
| 20260507014105 | 69 | 265 | 4.3 | 7.8 | 0.00 | 0.00 | 0.00 | 66 | 1007.8 |
| 20260507013605 | 70 | 280 | 4.3 | 7.0 | 0.00 | 0.00 | 0.00 | 64 | 1007.8 |
| 20260507013106 | 71 | 279 | 4.3 | 10.4 | 0.00 | 0.00 | 0.00 | 63 | 1007.8 |
| 20260507012605 | 71 | 296 | 3.5 | 7.8 | 0.00 | 0.00 | 0.00 | 61 | 1007.8 |
| 20260507012106 | 72 | 272 | 4.3 | 8.7 | 0.00 | 0.00 | 0.00 | 61 | 1007.8 |
| 20260507011605 | 72 | 270 | 4.3 | 7.0 | 0.00 | 0.00 | 0.00 | 61 | 1007.8 |
| 20260507010105 | 72 | 260 | 2.6 | 7.8 | 0.00 | 0.00 | 0.00 | 61 | 1007.8 |
| 20260507005105 | 73 | 269 | 3.5 | 7.8 | 0.00 | 0.00 | 0.00 | 61 | 1007.8 |
| 20260507004605 | 73 | 272 | 2.6 | 7.8 | 0.00 | 0.00 | 0.00 | 61 | 1007.8 |
| 20260507004105 | 73 | 268 | 4.3 | 7.0 | 0.00 | 0.00 | 0.00 | 60 | 1007.8 |
| 20260507003606 | 73 | 271 | 2.6 | 7.0 | 0.00 | 0.00 | 0.00 | 60 | 1007.8 |
| 20260507003105 | 73 | 255 | 4.3 | 7.8 | 0.00 | 0.00 | 0.00 | 59 | 1007.8 |
| 20260507002606 | 74 | 259 | 4.3 | 7.8 | 0.00 | 0.00 | 0.00 | 58 | 1007.8 |
| 20260507002105 | 74 | 275 | 3.5 | 8.7 | 0.00 | 0.00 | 0.00 | 57 | 1007.8 |
| 20260507001105 | 75 | 259 | 4.3 | 7.0 | 0.00 | 0.00 | 0.00 | 55 | 1007.8 |
| 20260507000605 | 75 | 250 | 4.3 | 11.3 | 0.00 | 0.00 | 0.00 | 54 | 1007.8 |
| 20260507000105 | 75 | 275 | 1.7 | 5.2 | 0.00 | 0.00 | 0.00 | 54 | 1007.8 |
| 20260506235605 | 75 | 274 | 2.6 | 7.8 | 0.00 | 0.00 | 0.00 | 54 | 1007.8 |
| 20260506235105 | 75 | 244 | 2.6 | 5.2 | 0.00 | 0.00 | 0.00 | 54 | 1007.8 |
| 20260506234605 | 75 | 242 | 2.6 | 5.2 | 0.00 | 0.00 | 0.00 | 54 | 1007.8 |
| 20260506234105 | 75 | 230 | 2.6 | 6.1 | 0.00 | 0.00 | 0.00 | 53 | 1007.8 |
| 20260506233606 | 75 | 283 | 1.7 | 6.1 | 0.00 | 0.00 | 0.00 | 52 | 1007.8 |
| 20260506233106 | 75 | 252 | 1.7 | 4.3 | 0.00 | 0.00 | 0.00 | 52 | 1008.1 |
| 20260506232605 | 75 | 279 | 1.7 | 5.2 | 0.00 | 0.00 | 0.00 | 52 | 1007.8 |
| 20260506232105 | 75 | 321 | 1.7 | 5.2 | 0.00 | 0.00 | 0.00 | 53 | 1007.8 |
| 20260506231606 | 75 | 307 | 2.6 | 5.2 | 0.00 | 0.00 | 0.00 | 53 | 1008.1 |
| 20260506230605 | 75 | 245 | 2.6 | 5.2 | 0.00 | 0.00 | 0.00 | 53 | 1008.1 |
| 20260506230105 | 75 | 290 | 0.9 | 5.2 | 0.00 | 0.00 | 0.00 | 53 | 1008.1 |
| 20260506225606 | 75 | 267 | 1.7 | 5.2 | 0.00 | 0.00 | 0.00 | 53 | 1008.2 |
| 20260506224605 | 75 | 308 | 1.7 | 5.2 | 0.00 | 0.00 | 0.00 | 53 | 1008.5 |
| 20260506224105 | 74 | 327 | 0.9 | 6.1 | 0.00 | 0.00 | 0.00 | 53 | 1008.5 |
| 20260506223604 | 74 | 298 | 1.7 | 5.2 | 0.00 | 0.00 | 0.00 | 53 | 1008.5 |
| 20260506223106 | 74 | 313 | 1.7 | 6.1 | 0.00 | 0.00 | 0.00 | 53 | 1008.5 |
| 20260506221605 | 74 | 335 | 2.6 | 7.0 | 0.00 | 0.00 | 0.00 | 53 | 1008.8 |
| 20260506221105 | 74 | 337 | 2.6 | 7.0 | 0.00 | 0.00 | 0.00 | 54 | 1008.8 |
| 20260506220605 | 73 | 310 | 1.7 | 5.2 | 0.00 | 0.00 | 0.00 | 54 | 1008.8 |
| 20260506220106 | 73 | 307 | 1.7 | 5.2 | 0.00 | 0.00 | 0.00 | 54 | 1009.1 |
| 20260506215605 | 73 | 313 | 2.6 | 5.2 | 0.00 | 0.00 | 0.00 | 54 | 1009.2 |
| 20260506214604 | 73 | 305 | 2.6 | 6.1 | 0.00 | 0.00 | 0.00 | 54 | 1009.5 |
| 20260506214105 | 73 | 256 | 2.6 | 6.1 | 0.00 | 0.00 | 0.00 | 54 | 1009.2 |
| 20260506213605 | 73 | 326 | 1.7 | 4.3 | 0.00 | 0.00 | 0.00 | 54 | 1009.5 |
| 20260506213105 | 73 | 309 | 1.7 | 6.1 | 0.00 | 0.00 | 0.00 | 54 | 1009.5 |
| 20260506212605 | 73 | 320 | 1.7 | 6.1 | 0.00 | 0.00 | 0.00 | 54 | 1009.5 |
| 20260506212105 | 73 | 309 | 1.7 | 7.0 | 0.00 | 0.00 | 0.00 | 54 | 1009.5 |
| 20260506211605 | 73 | 286 | 2.6 | 5.2 | 0.00 | 0.00 | 0.00 | 55 | 1009.5 |
| 20260506211106 | 73 | 310 | 2.6 | 7.0 | 0.00 | 0.00 | 0.00 | 55 | 1009.5 |
| 20260506210605 | 73 | 269 | 3.5 | 7.0 | 0.00 | 0.00 | 0.00 | 54 | 1009.5 |
| 20260506210105 | 72 | 312 | 2.6 | 5.2 | 0.00 | 0.00 | 0.00 | 54 | 1009.5 |
| 20260506205605 | 72 | 306 | 1.7 | 6.1 | 0.00 | 0.00 | 0.00 | 52 | 1009.5 |
| 20260506205105 | 73 | 309 | 2.6 | 6.1 | 0.00 | 0.00 | 0.00 | 51 | 1009.5 |
| 20260506204605 | 73 | 311 | 1.7 | 4.3 | 0.00 | 0.00 | 0.00 | 52 | 1009.5 |
| 20260506204105 | 72 | 291 | 1.7 | 6.1 | 0.00 | 0.00 | 0.00 | 52 | 1009.5 |
| 20260506203605 | 72 | 300 | 2.6 | 6.1 | 0.00 | 0.00 | 0.00 | 52 | 1009.5 |
| 20260506203105 | 72 | 252 | 2.6 | 6.1 | 0.00 | 0.00 | 0.00 | 52 | 1009.8 |
| 20260506202604 | 72 | 280 | 1.7 | 6.1 | 0.00 | 0.00 | 0.00 | 52 | 1009.8 |
| 20260506202104 | 72 | 254 | 1.7 | 4.3 | 0.00 | 0.00 | 0.00 | 53 | 1009.8 |
| 20260506201604 | 72 | 277 | 2.6 | 5.2 | 0.00 | 0.00 | 0.00 | 54 | 1010.1 |
| 20260506201105 | 72 | 300 | 2.6 | 6.1 | 0.00 | 0.00 | 0.00 | 54 | 1010.2 |
| 20260506200604 | 72 | 288 | 1.7 | 7.0 | 0.00 | 0.00 | 0.00 | 54 | 1010.2 |
| 20260506200105 | 71 | 218 | 1.7 | 5.2 | 0.00 | 0.00 | 0.00 | 54 | 1010.2 |
| 20260506195604 | 71 | 215 | 0.9 | 2.6 | 0.00 | 0.00 | 0.00 | 56 | 1010.2 |
| 20260506195105 | 71 | 296 | 1.7 | 4.3 | 0.00 | 0.00 | 0.00 | 57 | 1010.5 |
| 20260506194605 | 71 | 334 | 2.6 | 6.1 | 0.00 | 0.00 | 0.00 | 57 | 1010.2 |
| 20260506194104 | 71 | 321 | 2.6 | 7.0 | 0.00 | 0.00 | 0.00 | 57 | 1010.5 |
| 20260506193604 | 71 | 293 | 1.7 | 4.3 | 0.00 | 0.00 | 0.00 | 57 | 1010.5 |
| 20260506193105 | 71 | 302 | 2.6 | 5.2 | 0.00 | 0.00 | 0.00 | 58 | 1010.5 |
| 20260506192604 | 71 | 324 | 1.7 | 4.3 | 0.00 | 0.00 | 0.00 | 59 | 1010.5 |
| 20260506192105 | 70 | 264 | 0.9 | 2.6 | 0.00 | 0.00 | 0.00 | 60 | 1010.8 |
| 20260506191605 | 70 | 337 | 0.9 | 4.3 | 0.00 | 0.00 | 0.00 | 61 | 1010.5 |
| 20260506191105 | 70 | 315 | 1.7 | 4.3 | 0.00 | 0.00 | 0.00 | 62 | 1010.8 |
| 20260506190605 | 69 | 281 | 0.9 | 4.3 | 0.00 | 0.00 | 0.00 | 63 | 1010.8 |
| 20260506190106 | 69 | 303 | 0.9 | 5.2 | 0.00 | 0.00 | 0.00 | 63 | 1010.8 |
| 20260506185605 | 68 | 186 | 1.7 | 2.6 | 0.00 | 0.00 | 0.00 | 64 | 1010.8 |
| 20260506185104 | 68 | 324 | 1.7 | 4.3 | 0.00 | 0.00 | 0.00 | 65 | 1010.8 |
| 20260506184604 | 68 | 255 | 1.7 | 6.1 | 0.00 | 0.00 | 0.00 | 64 | 1010.8 |
| 20260506184105 | 68 | 252 | 2.6 | 7.0 | 0.00 | 0.00 | 0.00 | 64 | 1010.8 |
| 20260506183605 | 68 | 314 | 0.9 | 4.3 | 0.00 | 0.00 | 0.00 | 64 | 1010.8 |
| 20260506183104 | 68 | 326 | 1.7 | 4.3 | 0.00 | 0.00 | 0.00 | 65 | 1010.8 |
| 20260506182105 | 68 | 327 | 1.7 | 7.0 | 0.00 | 0.00 | 0.00 | 65 | 1011.2 |
| 20260506181105 | 68 | 299 | 0.9 | 5.2 | 0.00 | 0.00 | 0.00 | 65 | 1011.2 |
| 20260506180606 | 67 | 302 | 1.7 | 5.2 | 0.00 | 0.00 | 0.00 | 66 | 1011.2 |
| 20260506180104 | 67 | 298 | 1.7 | 4.3 | 0.00 | 0.00 | 0.00 | 66 | 1011.2 |
| 20260506175605 | 67 | 309 | 1.7 | 4.3 | 0.00 | 0.00 | 0.00 | 66 | 1010.8 |
| 20260506175106 | 66 | 208 | 1.7 | 4.3 | 0.00 | 0.00 | 0.00 | 67 | 1011.2 |
| 20260506174606 | 66 | 255 | 1.7 | 5.2 | 0.00 | 0.00 | 0.00 | 67 | 1010.9 |
| 20260506174105 | 66 | 217 | 2.6 | 7.0 | 0.00 | 0.00 | 0.00 | 67 | 1011.2 |
| 20260506173604 | 66 | 292 | 1.7 | 5.2 | 0.00 | 0.00 | 0.00 | 67 | 1011.2 |
| 20260506173104 | 67 | 273 | 1.7 | 5.2 | 0.00 | 0.00 | 0.00 | 67 | 1010.9 |
| 20260506172105 | 66 | 277 | 1.7 | 4.3 | 0.00 | 0.00 | 0.00 | 68 | 1011.2 |
| 20260506171604 | 66 | 278 | 0.9 | 2.6 | 0.00 | 0.00 | 0.00 | 69 | 1011.2 |
| 20260506171106 | 66 | 218 | 1.7 | 4.3 | 0.00 | 0.00 | 0.00 | 69 | 1011.2 |
| 20260506170604 | 65 | 187 | 0.9 | 2.6 | 0.00 | 0.00 | 0.00 | 70 | 1011.2 |
| 20260506170104 | 65 | 172 | 0.9 | 4.3 | 0.00 | 0.00 | 0.00 | 70 | 1011.2 |
| 20260506165604 | 65 | 157 | 0.9 | 2.6 | 0.00 | 0.00 | 0.00 | 70 | 1011.2 |
| 20260506165104 | 65 | 157 | 2.6 | 4.3 | 0.00 | 0.00 | 0.00 | 70 | 1011.2 |
| 20260506164605 | 65 | 157 | 0.0 | 4.3 | 0.00 | 0.00 | 0.00 | 71 | 1011.2 |
| 20260506164104 | 64 | 156 | 1.7 | 1.7 | 0.00 | 0.00 | 0.00 | 73 | 1011.2 |
| 20260506163104 | 63 | 227 | 2.6 | 5.2 | 0.00 | 0.00 | 0.00 | 74 | 1011.2 |
| 20260506162605 | 63 | 220 | 1.7 | 5.2 | 0.00 | 0.00 | 0.00 | 75 | 1011.2 |
| 20260506161604 | 61 | 180 | 0.9 | 2.6 | 0.00 | 0.00 | 0.00 | 77 | 1011.5 |
| 20260506161106 | 61 | 225 | 0.9 | 2.6 | 0.00 | 0.00 | 0.00 | 77 | 1011.5 |
| 20260506160606 | 61 | 202 | 0.9 | 1.7 | 0.00 | 0.00 | 0.00 | 78 | 1011.2 |
| 20260506160105 | 60 | 120 | 0.9 | 1.7 | 0.00 | 0.00 | 0.00 | 78 | 1011.2 |
| 20260506154104 | 59 | 157 | 0.9 | 5.2 | 0.00 | 0.00 | 0.00 | 79 | 1011.5 |
| 20260506153604 | 59 | 121 | 0.9 | 5.2 | 0.00 | 0.00 | 0.00 | 80 | 1011.5 |
| 20260506153104 | 59 | 207 | 0.9 | 4.3 | 0.00 | 0.00 | 0.00 | 80 | 1011.5 |
| 20260506152104 | 58 | 157 | 0.9 | 2.6 | 0.00 | 0.00 | 0.00 | 81 | 1011.5 |
| 20260506151604 | 58 | 147 | 0.9 | 7.0 | 0.00 | 0.00 | 0.00 | 82 | 1011.5 |
| 20260506150604 | 57 | 112 | 0.9 | 1.7 | 0.00 | 0.00 | 0.00 | 84 | 1011.5 |
| 20260506150104 | 56 | 157 | 1.7 | 5.2 | 0.00 | 0.00 | 0.00 | 84 | 1011.2 |
| 20260506145604 | 56 | 141 | 1.7 | 2.6 | 0.00 | 0.00 | 0.00 | 84 | 1011.5 |
| 20260506145104 | 56 | 139 | 0.9 | 2.6 | 0.00 | 0.00 | 0.00 | 84 | 1011.2 |
| 20260506144604 | 56 | 135 | 1.7 | 1.7 | 0.00 | 0.00 | 0.00 | 85 | 1011.2 |
| 20260506144105 | 56 | 138 | 0.9 | 2.6 | 0.00 | 0.00 | 0.00 | 85 | 1011.2 |
| 20260506143604 | 56 | 135 | 0.9 | 1.7 | 0.00 | 0.00 | 0.00 | 84 | 1011.2 |
| 20260506142604 | 56 | 135 | 0.9 | 2.6 | 0.00 | 0.00 | 0.00 | 84 | 1011.2 |
| 20260506142104 | 56 | 135 | 0.0 | 1.7 | 0.00 | 0.00 | 0.00 | 84 | 1011.2 |
| 20260506141604 | 56 | 135 | 0.0 | 1.7 | 0.00 | 0.00 | 0.00 | 84 | 1011.2 |
| 20260506141104 | 56 | 135 | 0.9 | 1.7 | 0.00 | 0.00 | 0.00 | 84 | 1010.8 |
| 20260506140605 | 56 | 135 | 0.9 | 1.7 | 0.00 | 0.00 | 0.00 | 84 | 1011.1 |
| 20260506140106 | 56 | 113 | 0.9 | 1.7 | 0.00 | 0.00 | 0.00 | 84 | 1010.8 |
| 20260506135604 | 56 | 112 | 0.9 | 1.7 | 0.00 | 0.00 | 0.00 | 84 | 1010.8 |
| 20260506135104 | 56 | 150 | 1.7 | 4.3 | 0.00 | 0.00 | 0.00 | 84 | 1010.8 |
| 20260506134604 | 55 | 135 | 1.7 | 1.7 | 0.00 | 0.00 | 0.00 | 84 | 1010.6 |
| 20260506133604 | 55 | 157 | 0.9 | 1.7 | 0.00 | 0.00 | 0.00 | 84 | 1010.8 |
| 20260506133104 | 55 | 135 | 0.9 | 1.7 | 0.00 | 0.00 | 0.00 | 84 | 1010.8 |
| 20260506132604 | 55 | 135 | 0.0 | 0.9 | 0.00 | 0.00 | 0.00 | 84 | 1010.5 |
| 20260506132104 | 55 | 157 | 0.0 | 0.0 | 0.00 | 0.00 | 0.00 | 84 | 1010.5 |
| 20260506131604 | 55 | 157 | 0.0 | 0.0 | 0.00 | 0.00 | 0.00 | 84 | 1010.8 |
| 20260506131105 | 55 | 157 | 0.0 | 0.0 | 0.00 | 0.00 | 0.00 | 84 | 1010.5 |
| 20260506130604 | 55 | 157 | 0.0 | 0.0 | 0.00 | 0.00 | 0.00 | 84 | 1010.5 |
| 20260506130105 | 55 | 157 | 0.0 | 0.0 | 0.00 | 0.00 | 0.00 | 84 | 1010.5 |
| 20260506125105 | 55 | 180 | 0.0 | 0.0 | 0.00 | 0.00 | 0.00 | 84 | 1010.5 |
| 20260506124604 | 55 | 112 | 0.0 | 0.0 | 0.00 | 0.00 | 0.00 | 84 | 1010.2 |
| 20260506124104 | 56 | 157 | 0.0 | 0.0 | 0.00 | 0.00 | 0.00 | 84 | 1010.2 |
| 20260506123104 | 56 | 135 | 0.0 | 0.0 | 0.00 | 0.00 | 0.00 | 83 | 1010.2 |
| 20260506122605 | 56 | 135 | 0.9 | 0.9 | 0.00 | 0.00 | 0.00 | 83 | 1010.5 |
| 20260506121604 | 56 | 149 | 0.9 | 1.7 | 0.00 | 0.00 | 0.00 | 83 | 1010.5 |
| 20260506120104 | 56 | 202 | 0.0 | 0.0 | 0.00 | 0.00 | 0.00 | 83 | 1010.5 |
| 20260506115104 | 56 | 135 | 0.0 | 0.0 | 0.00 | 0.00 | 0.00 | 82 | 1010.2 |
| 20260506114604 | 56 | 135 | 0.0 | 0.0 | 0.00 | 0.00 | 0.00 | 82 | 1010.2 |
| 20260506114104 | 56 | 135 | 0.0 | 0.0 | 0.00 | 0.00 | 0.00 | 82 | 1010.2 |
| 20260506113104 | 56 | 135 | 0.0 | 1.7 | 0.00 | 0.00 | 0.00 | 82 | 1010.2 |
| 20260506112603 | 56 | 155 | 0.0 | 2.6 | 0.00 | 0.00 | 0.00 | 82 | 1009.9 |
| 20260506112104 | 56 | 157 | 0.9 | 1.7 | 0.00 | 0.00 | 0.00 | 82 | 1010.2 |
| 20260506111604 | 56 | 176 | 0.9 | 1.7 | 0.00 | 0.00 | 0.00 | 82 | 1010.2 |
| 20260506111104 | 56 | 157 | 0.0 | 1.7 | 0.00 | 0.00 | 0.00 | 82 | 1009.9 |
| 20260506110604 | 56 | 157 | 0.9 | 1.7 | 0.00 | 0.00 | 0.00 | 82 | 1009.8 |
| 20260506110104 | 56 | 135 | 0.9 | 0.9 | 0.00 | 0.00 | 0.00 | 82 | 1009.8 |
| 20260506105604 | 56 | 135 | 0.9 | 2.6 | 0.00 | 0.00 | 0.00 | 82 | 1009.8 |
| 20260506105104 | 56 | 135 | 1.7 | 1.7 | 0.00 | 0.00 | 0.00 | 82 | 1009.8 |
| 20260506104605 | 56 | 150 | 0.9 | 1.7 | 0.00 | 0.00 | 0.00 | 82 | 1009.8 |
| 20260506104105 | 56 | 135 | 0.9 | 2.6 | 0.00 | 0.00 | 0.00 | 82 | 1009.8 |
| 20260506103604 | 56 | 135 | 1.7 | 1.7 | 0.00 | 0.00 | 0.00 | 82 | 1009.8 |
| 20260506103104 | 56 | 153 | 0.9 | 2.6 | 0.00 | 0.00 | 0.00 | 82 | 1009.8 |
| 20260506102604 | 56 | 151 | 0.9 | 1.7 | 0.00 | 0.00 | 0.00 | 83 | 1009.8 |
| 20260506102104 | 56 | 140 | 1.7 | 2.6 | 0.00 | 0.00 | 0.00 | 83 | 1009.8 |
| 20260506101605 | 56 | 161 | 0.9 | 1.7 | 0.00 | 0.00 | 0.00 | 83 | 1009.5 |
| 20260506101104 | 56 | 147 | 0.0 | 1.7 | 0.00 | 0.00 | 0.00 | 83 | 1009.8 |
| 20260506100604 | 56 | 157 | 0.0 | 0.9 | 0.00 | 0.00 | 0.00 | 83 | 1009.5 |
| 20260506100103 | 56 | 113 | 0.9 | 2.6 | 0.00 | 0.00 | 0.00 | 83 | 1009.5 |
| 20260506095604 | 56 | 158 | 0.9 | 2.6 | 0.00 | 0.00 | 0.00 | 84 | 1009.5 |
| 20260506095104 | 56 | 135 | 0.0 | 0.0 | 0.00 | 0.00 | 0.00 | 84 | 1009.5 |
| 20260506094604 | 56 | 157 | 0.0 | 0.0 | 0.00 | 0.00 | 0.00 | 84 | 1009.5 |
| 20260506094104 | 55 | 157 | 0.0 | 0.0 | 0.00 | 0.00 | 0.00 | 84 | 1009.5 |
| 20260506093605 | 55 | 202 | 0.0 | 0.0 | 0.00 | 0.00 | 0.00 | 84 | 1009.5 |
| 20260506092603 | 55 | 62 | 0.0 | 0.9 | 0.00 | 0.01 | 0.00 | 84 | 1009.8 |
| 20260506092104 | 55 | 101 | 0.0 | 1.7 | 0.00 | 0.01 | 0.00 | 84 | 1009.5 |
| 20260506091604 | 55 | 137 | 0.9 | 1.7 | 0.00 | 0.01 | 0.00 | 84 | 1009.8 |